Location: Poughquag
(41.6090°N, 73.6820°W)
Time: 07:15:04
(UTC-04:00)

X-37B - Visible Passes

Search period start: 31 May 2020 00:00
Search period end: 10 June 2020 00:00
Orbit: 389 x 390 km, 44.9° (Epoch: 18 May)

Date Brightness Start Highest point End Pass type
(mag) Time Alt. Az. Time Alt. Az. Time Alt. Az.
31 May ? 03:57:20 27° SW 03:58:44 48° SSE 04:01:50 10° ENE visible
01 Jun ? 03:01:47 24° ESE 03:01:47 24° ESE 03:03:45 10° E visible
01 Jun ? 04:34:18 10° W 04:37:29 67° NNW 04:40:40 10° ENE visible
02 Jun ? 03:38:28 38° WSW 03:39:34 83° SSE 03:42:45 10° ENE visible
03 Jun ? 02:42:50 31° E 02:42:50 31° E 02:44:47 10° ENE visible
03 Jun ? 04:15:16 10° W 04:18:23 50° N 04:21:31 10° ENE visible
04 Jun ? 03:19:28 40° W 03:20:24 65° NNW 03:23:35 10° ENE visible
05 Jun ? 02:23:47 32° ENE 02:23:47 32° ENE 02:25:39 10° ENE visible
05 Jun ? 03:56:13 10° WNW 03:59:18 43° N 04:02:22 10° ENE visible
06 Jun ? 03:00:23 36° WNW 03:01:16 49° N 03:04:23 10° ENE visible
06 Jun ? 04:35:07 10° WNW 04:38:14 50° N 04:41:22 10° E visible
07 Jun ? 02:04:43 28° ENE 02:04:43 28° ENE 02:06:26 10° ENE visible
07 Jun ? 03:37:07 10° WNW 03:40:12 44° N 03:43:16 10° ENE visible
08 Jun ? 02:41:23 35° NW 02:42:08 43° N 02:45:13 10° ENE visible
08 Jun ? 04:15:54 10° WNW 04:19:04 66° NNE 04:22:15 10° E visible
09 Jun ? 01:45:50 22° ENE 01:45:50 22° ENE 01:47:12 10° ENE visible
09 Jun ? 03:18:08 11° WNW 03:21:03 50° N 03:24:10 10° E visible
